Regional Weather Roundup
Issued by NWS

Home | Current Version | Previous Version | Text Only | Print | Product List | Glossary Off
Versions: 1 2 3 4 5 6 7 8 9 10 11 12 13 14 15 16 17 18 19 20 21 22 23 24 25 26 27 28 29 30 31 32 33 34 35 36 37 38 39 40 41 42 43 44 45 46 47 48 49 50

000
ASUS43 KMPX 291610
RWRMN
WEATHER ROUNDUP FOR MINNESOTA
NATIONAL WEATHER SERVICE TWIN CITIES/CHANHASSEN MN
1100 AM CDT WED MAR 29 2017


NOTE: "FAIR" INDICATES FEW OR NO CLOUDS BELOW 12,000 FEET WITH NO
SIGNIFICANT WEATHER AND/OR OBSTRUCTIONS TO VISIBILITY. N/A MEANS
CURRENT SKY AND/OR WEATHER CONDITIONS ARE NOT AVAILABLE.

MNZ060>063-068>070-291700-
   Twin Cities Metro

CITY           SKY/WX    TMP DP  RH WIND       PRES   REMARKS
TWIN CITIES    CLOUDY    50  32  50 SE13      30.25R
ST PAUL        CLOUDY    50  35  56 SE7       30.27R
CRYSTAL        CLOUDY    49  33  54 NE3       30.24R
BLAINE         CLOUDY    48  36  61 NE6       30.25S
LAKEVILLE      CLOUDY    46  36  66 SE7       30.24S
EDEN PRAIRIE   CLOUDY    50  33  52 SE9       30.23S
SOUTH ST PAUL  CLOUDY    48  32  54 SE7       30.25S
LAKE ELMO      FAIR      46  34  61 SE3       30.27R
$$
MNZ001>005-007-008-013>017-022>024-027-028-291700-
   Northwest Minnesota

CITY           SKY/WX    TMP DP  RH WIND       PRES   REMARKS
BEMIDJI        CLOUDY    40  29  65 SE9       30.21F
HALLOCK        SUNNY     45  37  76 S8        30.15S
ROSEAU         SUNNY     48  36  61 SE7       30.17F
WARROAD        SUNNY     43  34  70 E5        30.19F
THIEF RVR FALL CLOUDY    46  33  60 S12       30.18S
CROOKSTON      CLOUDY    46  37  71 S13       30.17F
FOSSTON        CLOUDY    46  36  66 SE7       30.18S
DETROIT LAKES  CLOUDY    43  32  65 SE10      30.20S
MOORHEAD       CLOUDY    48  36  61 S9        30.18F
PARK RAPIDS    CLOUDY    42  27  55 E8        30.21S
MAHNOMEN       FAIR      47  32  56 SE8       30.17F
$$
MNZ006-009>011-018-025>026-291700-
   North Central Minnesota

CITY           SKY/WX    TMP DP  RH WIND       PRES   REMARKS
BAUDETTE       CLOUDY    42  28  57 SE9       30.21S
FLAG ISLAND    SUNNY     36  28  75 S6        30.21S
INTL FALLS     CLOUDY    40  26  57 SE8       30.25F
WASKISH        CLOUDY    45  30  57 SE8       30.22S
BIG FORK       CLOUDY    43  27  52 SE8       30.25R
LONGVILLE      CLOUDY    39  28  65 SE3       30.24R
GRAND RAPIDS   CLOUDY    38  27  64 VRB7      30.28S
CRANE LAKE     CLOUDY    37  25  60 CALM      30.31S
ORR            CLOUDY    39  23  52 CALM      30.25S
COOK           CLOUDY    39  27  60 SE7       30.27F
WALKER         FAIR      37  29  71 E3        30.23S
$$
MNZ012-019>021-037-291700-
   Northeast Minnesota

CITY           SKY/WX    TMP DP  RH WIND       PRES   REMARKS
DULUTH         PTSUNNY   36  30  79 E15       30.30S
ELY            CLOUDY    37  25  60 E7        30.29S
HIBBING        CLOUDY    37  28  70 SE13      30.27S
EVELETH        CLOUDY    40  23  51 SE8       30.29S
DULUTH HARBOR  CLOUDY    37  34  87 NE18      30.35S
TWO HARBORS    CLOUDY    39  32  75 E16G24    30.31S
GRAND MARAIS     N/A     35  28  75 NE12G18   30.39S WCI  27
G MARAIS ARPRT CLOUDY    34  19  55 E8        30.34S WCI  27
$$
MNZ029>031-032-039>041-046>048-054>057-064-291700-
   West Central Minnesota

CITY           SKY/WX    TMP DP  RH WIND       PRES   REMARKS
FERGUS FALLS   CLOUDY    48  32  53 SE9       30.22S
WHEATON        CLOUDY    46  36  66 SE9       30.20S
MORRIS         PTSUNNY   52  36  54 SE9       30.18F
ALEXANDRIA     CLOUDY    45  32  60 SE9       30.21S
ELBOW LAKE     FAIR      48  34  58 SE9       30.19S
WADENA         CLOUDY    41  30  65 E6        30.21S
GLENWOOD       CLOUDY    46  34  61 E9        30.21F
APPLETON       CLOUDY    50  36  57 SE9       30.18F
BENSON         CLOUDY    54  30  40 SE8       30.21S
ORTONVILLE     MOSUNNY   48  36  61 SE6       30.18S
MADISON        MOSUNNY   54  39  58 SE9       30.18F
WILLMAR        FAIR      48  37  66 SE10      30.22S
$$
MNZ033>034-036-042>043-049>051-058-059-291700-
   Central Minnesota

CITY           SKY/WX    TMP DP  RH WIND       PRES   REMARKS
ST CLOUD       CLOUDY    42  33  70 E3        30.24S
SAUK CENTRE    FAIR      42  32  67 E6        30.22F
PAYNESVILLE    CLOUDY    44  33  66 E8        30.23S
AITKIN         CLOUDY    43  28  56 E6        30.25R
PINE RIVER     CLOUDY    39  30  70 E7        30.27R
BRAINERD       PTSUNNY   41  30  65 VRB5      30.24S
STAPLES        CLOUDY    39  28  65 SE5       30.22S
LONG PRAIRIE   FAIR      41  32  70 E5        30.22S
LITTLE FALLS   CLOUDY    41  32  70 SE7       30.24R
LITCHFIELD     CLOUDY    46  36  66 E6        30.23S
BUFFALO        CLOUDY    44  33  64 E6        30.25S
MAPLE LAKE     CLOUDY    44  35  72 E5        30.25S
HUTCHINSON     MOSUNNY   48  40  73 E6        30.23S
$$
MNZ037-044-045-052-053-291700-
   East Central Minnesota

CITY           SKY/WX    TMP DP  RH WIND       PRES   REMARKS
PRINCETON      CLOUDY    43  34  70 E5        30.26S
MORA           PTSUNNY   37  30  75 E5        30.28S
CAMBRIDGE      CLOUDY    43  30  61 CALM      30.25S
RUSH CITY      CLOUDY    42  32  68 NE3       30.27S
MOOSE LAKE     CLOUDY    37  32  81 NE7       30.28S
CLOQUET        CLOUDY    36  28  75 E14       30.30R
MCGREGOR       CLOUDY    41  32  70 E9        30.28R
$$
MNZ071>073-080-081-089-090-097-098-291700-
   Southwest Minnesota

CITY           SKY/WX    TMP DP  RH WIND       PRES   REMARKS
MONTEVIDEO     CLOUDY    52  37  58 S8        30.19F
GRANITE FALLS  CLOUDY    50  39  66 E5        30.21S
CANBY          PTSUNNY   48  38  70 CALM      30.19S
MARSHALL       PTSUNNY   46  38  73 E6        30.19S
REDWOOD FALLS  CLOUDY    49  38  65 SE7       30.19F
OLIVIA         CLOUDY    50  37  62 E7        30.20S
PIPESTONE      CLOUDY    48  36  61 SE8       30.14F
WINDOM         CLOUDY    46  39  76 NE10      30.17S
WORTHINGTON    CLOUDY    45  40  82 E12       30.16S
JACKSON        CLOUDY    43  37  81 E9        30.18R
TRACY          CLOUDY    47  41  77 E6        30.18S
SLAYTON        CLOUDY    47  40  77 E10       30.16F
$$
MNZ065>067-074>077-082>085-091>093-291700-
   South Central Minnesota

CITY           SKY/WX    TMP DP  RH WIND       PRES   REMARKS
MANKATO        CLOUDY    46  35  65 SE12      30.21F
NEW ULM        CLOUDY    48  34  57 E10       30.20S
ST JAMES       CLOUDY    45  37  76 E7        30.20S
FAIRMONT       CLOUDY    45  38  76 SE14      30.19S
GLENCOE        CLOUDY    49  42  76 E7        30.22S
FARIBAULT      CLOUDY    46  36  66 E7        30.24S
OWATONNA       CLOUDY    45  36  70 E9        30.22S
WASECA         CLOUDY    45  34  65 E14       30.22F
ALBERT LEA     RAIN      43  36  75 SE12      30.21R
$$
MNZ078>079-086>088-094>096-291700-
   Southeast Minnesota

CITY           SKY/WX    TMP DP  RH WIND       PRES   REMARKS
ROCHESTER      CLOUDY    42  36  79 E13       30.23S
RED WING       CLOUDY    46  32  57 SE7       30.26R
STANTON        CLOUDY    48  35  62 SE7       30.23S
DODGE CENTER   CLOUDY    43  36  75 E10       30.22S
WINONA         CLOUDY    43  34  70 SE7       30.28R
AUSTIN         DRIZZLE   43  37  81 SE12      30.22R
PRESTON        CLOUDY    41  35  78 E8        30.24S
$$
ABBREVIATIONS USED IN REMARKS
   TC - TEMPERATURES IN CELSIUS
  WCI - WIND CHILL INDEX
   HX - HEAT INDEX
  VSB - VISIBILITY
$$




USA.gov is the U.S. government's official web portal to all federal, state and local government web resources and services.